Time,TemperatureF,DewpointF,PressureIn,WindDirection,WindDirectionDegrees,WindSpeedMPH,WindSpeedGustMPH,Humidity,HourlyPrecipIn,Conditions,Clouds,dailyrainin,SoftwareType,DateUTC
2013-08-21 00:04:00,80.4,77.9,30.13,NW,321,0.0,0.0,92,0.00,,,0.00,Wunderground v.1.15,2013-08-21 04:04:00,
2013-08-21 00:08:00,80.3,77.8,30.13,NW,320,0.0,0.0,92,0.00,,,0.00,Wunderground v.1.15,2013-08-21 04:08:00,
2013-08-21 00:18:00,79.9,77.7,30.13,NW,321,0.0,0.0,93,0.00,,,0.00,Wunderground v.1.15,2013-08-21 04:18:00,
2013-08-21 00:23:00,79.7,77.5,30.12,NW,321,0.0,0.0,93,0.00,,,0.00,Wunderground v.1.15,2013-08-21 04:23:00,
2013-08-21 00:28:00,79.8,77.9,30.13,NW,321,0.0,0.0,94,0.00,,,0.00,Wunderground v.1.15,2013-08-21 04:28:00,
2013-08-21 00:34:00,79.7,77.8,30.13,NW,321,0.0,0.0,94,0.00,,,0.00,Wunderground v.1.15,2013-08-21 04:34:00,
2013-08-21 00:39:00,79.7,77.8,30.12,NW,321,0.0,0.0,94,0.00,,,0.00,Wunderground v.1.15,2013-08-21 04:39:00,
2013-08-21 00:44:00,79.7,77.8,30.12,NW,322,0.0,0.0,94,0.00,,,0.00,Wunderground v.1.15,2013-08-21 04:44:00,
2013-08-21 00:49:00,79.7,77.8,30.12,NW,320,0.0,0.0,94,0.00,,,0.00,Wunderground v.1.15,2013-08-21 04:49:00,
2013-08-21 00:54:00,79.8,77.9,30.12,NW,320,0.0,0.0,94,0.00,,,0.00,Wunderground v.1.15,2013-08-21 04:54:00,
2013-08-21 00:59:00,79.9,78.0,30.12,NNW,327,0.0,0.0,94,0.00,,,0.00,Wunderground v.1.15,2013-08-21 04:59:00,
2013-08-21 01:04:00,80.2,78.3,30.12,WNW,287,0.0,1.0,94,0.00,,,0.00,Wunderground v.1.15,2013-08-21 05:04:00,
2013-08-21 01:08:00,80.5,78.3,30.11,NW,308,1.0,1.0,93,0.00,,,0.00,Wunderground v.1.15,2013-08-21 05:08:00,
2013-08-21 01:13:00,80.8,78.6,30.11,NW,311,1.0,1.0,93,0.00,,,0.00,Wunderground v.1.15,2013-08-21 05:13:00,
2013-08-21 01:19:00,80.9,78.7,30.12,NW,316,1.0,1.0,93,0.00,,,0.00,Wunderground v.1.15,2013-08-21 05:19:00,
2013-08-21 01:24:00,81.1,78.9,30.11,NW,316,1.0,1.0,93,0.00,,,0.00,Wunderground v.1.15,2013-08-21 05:24:00,
2013-08-21 01:29:00,81.1,78.6,30.11,NW,314,1.0,1.0,92,0.00,,,0.00,Wunderground v.1.15,2013-08-21 05:29:00,
2013-08-21 01:34:00,81.1,78.6,30.11,NW,318,1.0,4.0,92,0.00,,,0.00,Wunderground v.1.15,2013-08-21 05:34:00,
2013-08-21 01:39:00,81.1,78.6,30.11,NW,307,1.0,1.0,92,0.00,,,0.00,Wunderground v.1.15,2013-08-21 05:39:00,
2013-08-21 01:44:00,81.1,78.6,30.11,NW,323,1.0,1.0,92,0.00,,,0.00,Wunderground v.1.15,2013-08-21 05:44:00,
2013-08-21 01:53:00,81.1,78.6,30.11,NW,309,1.0,1.0,92,0.00,,,0.00,Wunderground v.1.15,2013-08-21 05:53:00,
2013-08-21 01:58:00,81.0,78.5,30.11,NW,309,0.0,0.0,92,0.00,,,0.00,Wunderground v.1.15,2013-08-21 05:58:00,
2013-08-21 02:04:00,80.8,78.3,30.11,West,278,0.0,0.0,92,0.00,,,0.00,Wunderground v.1.15,2013-08-21 06:04:00,
2013-08-21 02:09:00,80.6,78.4,30.11,West,278,0.0,0.0,93,0.00,,,0.00,Wunderground v.1.15,2013-08-21 06:09:00,
2013-08-21 02:14:00,80.5,78.3,30.11,NW,304,0.0,0.0,93,0.00,,,0.00,Wunderground v.1.15,2013-08-21 06:14:00,
2013-08-21 02:19:00,80.4,78.2,30.11,WNW,302,0.0,1.0,93,0.00,,,0.00,Wunderground v.1.15,2013-08-21 06:19:00,
2013-08-21 02:24:00,80.4,78.2,30.11,WNW,302,0.0,1.0,93,0.00,,,0.00,Wunderground v.1.15,2013-08-21 06:24:00,
2013-08-21 02:29:00,80.3,78.1,30.11,NW,304,0.0,0.0,93,0.00,,,0.00,Wunderground v.1.15,2013-08-21 06:29:00,
2013-08-21 02:33:00,80.2,78.0,30.11,NW,304,0.0,0.0,93,0.00,,,0.00,Wunderground v.1.15,2013-08-21 06:33:00,
2013-08-21 02:38:00,80.1,77.9,30.11,NW,304,0.0,0.0,93,0.00,,,0.00,Wunderground v.1.15,2013-08-21 06:38:00,
2013-08-21 02:43:00,80.1,77.9,30.11,WNW,303,0.0,0.0,93,0.00,,,0.00,Wunderground v.1.15,2013-08-21 06:43:00,
2013-08-21 02:48:00,80.0,77.8,30.10,NW,304,0.0,0.0,93,0.00,,,0.00,Wunderground v.1.15,2013-08-21 06:48:00,
2013-08-21 02:53:00,80.0,78.1,30.10,NW,311,0.0,1.0,94,0.00,,,0.00,Wunderground v.1.15,2013-08-21 06:53:00,
2013-08-21 02:58:00,80.1,78.2,30.10,NNW,332,0.0,1.0,94,0.00,,,0.00,Wunderground v.1.15,2013-08-21 06:58:00,
2013-08-21 03:04:00,80.2,78.3,30.10,NNW,327,1.0,1.0,94,0.00,,,0.00,Wunderground v.1.15,2013-08-21 07:04:00,
2013-08-21 03:09:00,80.2,78.3,30.10,North,8,1.0,1.0,94,0.00,,,0.00,Wunderground v.1.15,2013-08-21 07:09:00,
2013-08-21 03:14:00,80.2,78.3,30.10,NW,323,1.0,2.0,94,0.00,,,0.00,Wunderground v.1.15,2013-08-21 07:14:00,
2013-08-21 03:23:00,80.1,78.2,30.10,NNW,345,0.0,1.0,94,0.00,,,0.00,Wunderground v.1.15,2013-08-21 07:23:00,
2013-08-21 03:28:00,79.9,78.0,30.10,NNW,346,0.0,0.0,94,0.00,,,0.00,Wunderground v.1.15,2013-08-21 07:28:00,
2013-08-21 03:33:00,79.8,77.9,30.10,NNW,346,0.0,0.0,94,0.00,,,0.00,Wunderground v.1.15,2013-08-21 07:33:00,
2013-08-21 03:38:00,79.7,78.1,30.10,NNW,346,0.0,0.0,95,0.00,,,0.00,Wunderground v.1.15,2013-08-21 07:38:00,
2013-08-21 03:43:00,79.6,78.0,30.10,NNW,346,0.0,0.0,95,0.00,,,0.00,Wunderground v.1.15,2013-08-21 07:43:00,
2013-08-21 03:49:00,79.5,77.9,30.10,NNW,346,0.0,0.0,95,0.00,,,0.00,Wunderground v.1.15,2013-08-21 07:49:00,
2013-08-21 03:54:00,79.4,77.8,30.10,NNW,346,0.0,0.0,95,0.00,,,0.00,Wunderground v.1.15,2013-08-21 07:54:00,
2013-08-21 03:59:00,79.3,77.7,30.10,NNW,346,0.0,0.0,95,0.00,,,0.00,Wunderground v.1.15,2013-08-21 07:59:00,
2013-08-21 04:04:00,79.2,78.0,30.10,NNW,345,0.0,0.0,96,0.00,,,0.00,Wunderground v.1.15,2013-08-21 08:04:00,
2013-08-21 04:09:00,79.2,78.0,30.10,NNW,345,0.0,0.0,96,0.00,,,0.00,Wunderground v.1.15,2013-08-21 08:09:00,
2013-08-21 04:14:00,79.2,78.0,30.11,NNW,346,0.0,0.0,96,0.00,,,0.00,Wunderground v.1.15,2013-08-21 08:14:00,
2013-08-21 04:23:00,79.2,78.0,30.10,NNW,346,0.0,0.0,96,0.00,,,0.00,Wunderground v.1.15,2013-08-21 08:23:00,
2013-08-21 04:28:00,79.2,78.0,30.10,NNW,345,0.0,0.0,96,0.00,,,0.00,Wunderground v.1.15,2013-08-21 08:28:00,
2013-08-21 04:34:00,79.2,78.0,30.10,NNW,346,0.0,0.0,96,0.00,,,0.00,Wunderground v.1.15,2013-08-21 08:34:00,
2013-08-21 04:39:00,79.1,77.9,30.10,NNW,346,0.0,0.0,96,0.00,,,0.00,Wunderground v.1.15,2013-08-21 08:39:00,
2013-08-21 04:49:00,78.8,77.6,30.10,NNW,346,0.0,0.0,96,0.00,,,0.00,Wunderground v.1.15,2013-08-21 08:49:00,
2013-08-21 04:54:00,78.8,77.6,30.10,NNW,346,0.0,0.0,96,0.00,,,0.00,Wunderground v.1.15,2013-08-21 08:54:00,
2013-08-21 04:59:00,78.7,77.5,30.10,NNW,346,0.0,0.0,96,0.00,,,0.00,Wunderground v.1.15,2013-08-21 08:59:00,
2013-08-21 05:08:00,78.6,77.7,30.10,NNW,346,0.0,0.0,97,0.00,,,0.00,Wunderground v.1.15,2013-08-21 09:08:00,
2013-08-21 05:13:00,78.4,77.5,30.10,NNE,27,0.0,0.0,97,0.00,,,0.00,Wunderground v.1.15,2013-08-21 09:13:00,
2013-08-21 05:18:00,78.3,77.4,30.10,NNE,27,0.0,0.0,97,0.00,,,0.00,Wunderground v.1.15,2013-08-21 09:18:00,
2013-08-21 05:23:00,78.3,77.4,30.10,NNE,27,0.0,0.0,97,0.00,,,0.00,Wunderground v.1.15,2013-08-21 09:23:00,
2013-08-21 05:28:00,78.2,77.3,30.10,NNE,27,0.0,0.0,97,0.00,,,0.00,Wunderground v.1.15,2013-08-21 09:28:00,
2013-08-21 05:34:00,78.2,77.6,30.10,NNE,27,0.0,0.0,98,0.00,,,0.00,Wunderground v.1.15,2013-08-21 09:34:00,
2013-08-21 05:39:00,78.3,77.4,30.10,NNE,28,0.0,0.0,97,0.00,,,0.00,Wunderground v.1.15,2013-08-21 09:39:00,
2013-08-21 05:44:00,78.2,77.6,30.10,NNE,27,0.0,0.0,98,0.00,,,0.00,Wunderground v.1.15,2013-08-21 09:44:00,
2013-08-21 05:49:00,78.2,77.6,30.10,NNE,27,0.0,0.0,98,0.00,,,0.00,Wunderground v.1.15,2013-08-21 09:49:00,
2013-08-21 05:54:00,78.2,77.6,30.11,NNE,27,0.0,0.0,98,0.00,,,0.00,Wunderground v.1.15,2013-08-21 09:54:00,
2013-08-21 05:59:00,78.1,77.5,30.11,NNE,27,0.0,0.0,98,0.00,,,0.00,Wunderground v.1.15,2013-08-21 09:59:00,
2013-08-21 06:04:00,78.1,77.5,30.11,NNE,27,0.0,0.0,98,0.00,,,0.00,Wunderground v.1.15,2013-08-21 10:04:00,
2013-08-21 06:08:00,78.1,77.5,30.11,NNE,27,0.0,0.0,98,0.00,,,0.00,Wunderground v.1.15,2013-08-21 10:08:00,
2013-08-21 06:13:00,78.1,77.5,30.11,NNE,27,0.0,0.0,98,0.00,,,0.00,Wunderground v.1.15,2013-08-21 10:13:00,
2013-08-21 06:19:00,78.1,77.5,30.11,NNE,27,0.0,0.0,98,0.00,,,0.00,Wunderground v.1.15,2013-08-21 10:19:00,
2013-08-21 06:24:00,77.9,77.3,30.11,NNE,27,0.0,0.0,98,0.00,,,0.00,Wunderground v.1.15,2013-08-21 10:24:00,
2013-08-21 06:34:00,78.0,77.4,30.11,NNE,27,0.0,0.0,98,0.00,,,0.00,Wunderground v.1.15,2013-08-21 10:34:00,
2013-08-21 06:39:00,77.9,77.3,30.11,NNE,27,0.0,0.0,98,0.00,,,0.00,Wunderground v.1.15,2013-08-21 10:39:00,
2013-08-21 06:44:00,77.8,77.5,30.12,NNE,27,0.0,0.0,99,0.00,,,0.00,Wunderground v.1.15,2013-08-21 10:44:00,
2013-08-21 06:48:00,77.9,77.6,30.12,NNE,27,0.0,0.0,99,0.00,,,0.00,Wunderground v.1.15,2013-08-21 10:48:00,
2013-08-21 06:53:00,77.8,77.5,30.12,NNE,27,0.0,0.0,99,0.00,,,0.00,Wunderground v.1.15,2013-08-21 10:53:00,
2013-08-21 06:58:00,77.9,77.6,30.12,NNE,27,0.0,0.0,99,0.00,,,0.00,Wunderground v.1.15,2013-08-21 10:58:00,
2013-08-21 07:04:00,77.9,77.6,30.12,NE,40,0.0,0.0,99,0.00,,,0.00,Wunderground v.1.15,2013-08-21 11:04:00,
2013-08-21 07:08:00,77.8,77.5,30.13,NE,40,0.0,0.0,99,0.00,,,0.00,Wunderground v.1.15,2013-08-21 11:08:00,
2013-08-21 07:13:00,77.9,77.6,30.13,NE,40,0.0,0.0,99,0.00,,,0.00,Wunderground v.1.15,2013-08-21 11:13:00,
2013-08-21 07:18:00,77.9,77.6,30.12,NE,40,0.0,0.0,99,0.00,,,0.00,Wunderground v.1.15,2013-08-21 11:18:00,
2013-08-21 07:23:00,78.1,77.8,30.12,NE,40,0.0,0.0,99,0.00,,,0.00,Wunderground v.1.15,2013-08-21 11:23:00,
2013-08-21 07:28:00,78.1,77.8,30.12,NE,40,0.0,0.0,99,0.00,,,0.00,Wunderground v.1.15,2013-08-21 11:28:00,
2013-08-21 07:34:00,78.3,78.0,30.12,NE,40,0.0,0.0,99,0.00,,,0.00,Wunderground v.1.15,2013-08-21 11:34:00,
2013-08-21 07:39:00,78.3,78.0,30.13,NE,39,0.0,0.0,99,0.00,,,0.00,Wunderground v.1.15,2013-08-21 11:39:00,
2013-08-21 07:44:00,78.5,78.2,30.13,NE,39,0.0,0.0,99,0.00,,,0.00,Wunderground v.1.15,2013-08-21 11:44:00,
2013-08-21 07:49:00,78.6,78.3,30.13,NE,40,0.0,0.0,99,0.00,,,0.00,Wunderground v.1.15,2013-08-21 11:49:00,
2013-08-21 07:54:00,78.8,78.5,30.13,NE,49,0.0,0.0,99,0.00,,,0.00,Wunderground v.1.15,2013-08-21 11:54:00,
2013-08-21 07:59:00,79.1,78.8,30.13,SE,136,0.0,0.0,99,0.00,,,0.00,Wunderground v.1.15,2013-08-21 11:59:00,
2013-08-21 08:04:00,79.5,79.2,30.13,SE,134,0.0,0.0,99,0.00,,,0.00,Wunderground v.1.15,2013-08-21 12:04:00,
2013-08-21 08:08:00,79.9,79.6,30.14,ESE,120,0.0,0.0,99,0.00,,,0.00,Wunderground v.1.15,2013-08-21 12:08:00,
2013-08-21 08:13:00,80.2,79.6,30.14,SSE,150,0.0,0.0,98,0.00,,,0.00,Wunderground v.1.15,2013-08-21 12:13:00,
2013-08-21 08:18:00,80.6,79.7,30.14,ESE,106,0.0,0.0,97,0.00,,,0.00,Wunderground v.1.15,2013-08-21 12:18:00,
2013-08-21 08:23:00,81.1,79.9,30.14,ESE,106,0.0,0.0,96,0.00,,,0.00,Wunderground v.1.15,2013-08-21 12:23:00,
2013-08-21 08:28:00,81.5,79.9,30.14,East,80,0.0,0.0,95,0.00,,,0.00,Wunderground v.1.15,2013-08-21 12:28:00,
2013-08-21 08:34:00,81.9,79.7,30.15,North,1,0.0,0.0,93,0.00,,,0.00,Wunderground v.1.15,2013-08-21 12:34:00,
2013-08-21 08:39:00,82.3,79.7,30.14,North,1,0.0,0.0,92,0.00,,,0.00,Wunderground v.1.15,2013-08-21 12:39:00,
2013-08-21 08:44:00,82.6,79.7,30.15,North,1,0.0,1.0,91,0.00,,,0.00,Wunderground v.1.15,2013-08-21 12:44:00,
2013-08-21 08:49:00,82.8,79.9,30.15,South,173,0.0,1.0,91,0.00,,,0.00,Wunderground v.1.15,2013-08-21 12:49:00,
2013-08-21 08:54:00,83.5,80.3,30.15,SSE,156,1.0,1.0,90,0.00,,,0.00,Wunderground v.1.15,2013-08-21 12:54:00,
2013-08-21 08:59:00,84.0,79.7,30.15,South,177,1.0,1.0,87,0.00,,,0.00,Wunderground v.1.15,2013-08-21 12:59:00,
2013-08-21 09:08:00,84.5,79.8,30.16,NW,307,2.0,2.0,86,0.00,,,0.00,Wunderground v.1.15,2013-08-21 13:08:00,
2013-08-21 09:13:00,85.1,80.4,30.16,South,183,1.0,2.0,86,0.00,,,0.00,Wunderground v.1.15,2013-08-21 13:13:00,
2013-08-21 09:18:00,85.2,79.8,30.16,SE,142,1.0,2.0,84,0.00,,,0.00,Wunderground v.1.15,2013-08-21 13:18:00,
2013-08-21 09:23:00,85.1,79.7,30.16,West,267,1.0,2.0,84,0.00,,,0.00,Wunderground v.1.15,2013-08-21 13:23:00,
2013-08-21 09:28:00,84.6,79.6,30.16,SSE,167,1.0,1.0,85,0.00,,,0.00,Wunderground v.1.15,2013-08-21 13:28:00,
2013-08-21 09:34:00,84.2,79.2,30.16,WNW,301,1.0,2.0,85,0.00,,,0.00,Wunderground v.1.15,2013-08-21 13:34:00,
2013-08-21 09:39:00,83.8,79.2,30.15,WNW,302,1.0,1.0,86,0.00,,,0.00,Wunderground v.1.15,2013-08-21 13:39:00,
2013-08-21 09:44:00,83.7,79.4,30.16,WNW,301,0.0,1.0,87,0.00,,,0.00,Wunderground v.1.15,2013-08-21 13:44:00,
2013-08-21 09:48:00,83.6,79.3,30.16,WNW,295,0.0,1.0,87,0.00,,,0.00,Wunderground v.1.15,2013-08-21 13:48:00,
2013-08-21 09:54:00,83.5,79.6,30.16,WNW,302,1.0,1.0,88,0.00,,,0.00,Wunderground v.1.15,2013-08-21 13:54:00,
2013-08-21 09:59:00,83.7,79.1,30.16,NW,305,0.0,2.0,86,0.00,,,0.00,Wunderground v.1.15,2013-08-21 13:59:00,
2013-08-21 10:04:00,83.4,76.2,30.16,WNW,303,2.0,2.0,79,0.00,,,0.00,Wunderground v.1.15,2013-08-21 14:04:00,
2013-08-21 10:08:00,83.8,75.8,30.17,NW,305,3.0,3.0,77,0.00,,,0.00,Wunderground v.1.15,2013-08-21 14:08:00,
2013-08-21 10:13:00,83.7,75.7,30.17,NNW,340,1.0,3.0,77,0.00,,,0.00,Wunderground v.1.15,2013-08-21 14:13:00,
2013-08-21 10:19:00,83.7,76.9,30.17,ENE,60,0.0,0.0,80,0.00,,,0.00,Wunderground v.1.15,2013-08-21 14:19:00,
2013-08-21 10:23:00,83.9,78.2,30.16,ENE,60,0.0,0.0,83,0.00,,,0.00,Wunderground v.1.15,2013-08-21 14:23:00,
2013-08-21 10:28:00,84.1,78.4,30.16,SE,141,1.0,1.0,83,0.00,,,0.00,Wunderground v.1.15,2013-08-21 14:28:00,
2013-08-21 10:34:00,84.2,78.1,30.16,SSW,195,1.0,1.0,82,0.00,,,0.00,Wunderground v.1.15,2013-08-21 14:34:00,
2013-08-21 10:39:00,84.4,79.0,30.17,SSW,203,2.0,2.0,84,0.00,,,0.00,Wunderground v.1.15,2013-08-21 14:39:00,
2013-08-21 10:44:00,84.8,78.7,30.17,SSE,158,2.0,2.0,82,0.00,,,0.00,Wunderground v.1.15,2013-08-21 14:44:00,
2013-08-21 10:48:00,84.7,76.7,30.17,SSE,150,3.0,3.0,77,0.00,,,0.00,Wunderground v.1.15,2013-08-21 14:48:00,
2013-08-21 10:53:00,85.6,77.9,30.17,SSE,153,2.0,3.0,78,0.00,,,0.00,Wunderground v.1.15,2013-08-21 14:53:00,
2013-08-21 10:59:00,85.7,77.7,30.17,SSW,195,1.0,2.0,77,0.00,,,0.00,Wunderground v.1.15,2013-08-21 14:59:00,
2013-08-21 11:04:00,84.9,77.7,30.17,South,170,2.0,2.0,79,0.00,,,0.00,Wunderground v.1.15,2013-08-21 15:04:00,
2013-08-21 11:08:00,84.9,78.0,30.18,South,184,3.0,3.0,80,0.00,,,0.00,Wunderground v.1.15,2013-08-21 15:08:00,
2013-08-21 11:13:00,85.0,78.5,30.18,South,176,2.0,3.0,81,0.00,,,0.00,Wunderground v.1.15,2013-08-21 15:13:00,